Flock 4q-13

operational
NORAD ID: 58328 Int'l Des: 2023-174 Owner: PLAN Country: US Constellation: planet
LEOCIRCULARRETROGRADESSO

关于 Flock 4q-13

正在加载描述...

实时位置

正在加载3D地球...

即将过境

高度历史

Altitude vs Time

uPlot chart will show altitude changes over time

两行轨道根数

1 58328U 23174CA 26063.16762867 .00041543 00000-0 83244-3 0 9994
2 58328 97.4029 151.2910 0007509 168.9546 191.1870 15.46586347129411
Epoch: Mar 4, 2026 • Age: 11 hours

当前状态

高度 443.1 km
速度 7.65 km/s
星下点 -48.67°S, 7.4°W
发射日期 Nov 11, 2023
运行时间 2.3 years
类型 earth observation

技术详情

分类 Payload
质量 5.70 kg
干质量 5.70 kg
总质量 5.70 kg
长度 0.30 m
直径 0.10 m
跨度 0.30 m
形状 Box+2 pan
制造商 PLAN
平台类型 Cubesat 3U
阶段状态 In Orbit
所有者/国家 PLAN/US

大型星座

Loading constellations...